QPF
0.01 0.02 0.04 0.04 0.03 0.02 0.02 0.02 0.01 0.01 0.01 0.02 0.03 0.04 0.06 0.07 0.07 0.07 0.09 0.07 0.05 0.03 0.03 0.03 0.02 0.02 0.02 0.02 0.04 0.04 0.03 0.03 0.05 0.06 0.04 0.04 0.04 0.04 0.04 0.04 0.04 0.04 0.06
0.03 0.05 0.04 0.03 0.04 0.03 0.03 0.02 0.01 0.01 0.01 0.01 0.02 0.03 0.05 0.05 0.05 0.08 0.08 0.06 0.05 0.04 0.04 0.04 0.03 0.03 0.04 0.04 0.05 0.07 0.03 0.03 0.05 0.06 0.05 0.04 0.04 0.04 0.03 0.04 0.05 0.05 0.06
0.01 0.02 0.03 0.02 0.07 0.05 0.02 0.02 0.01 0.01 0.01 0.01 0.01 0.02 0.04 0.04 0.03 0.04 0.04 0.03 0.03 0.04 0.05 0.05 0.04 0.05 0.05 0.04 0.04 0.06 0.04 0.03 0.03 0.04 0.05 0.04 0.03 0.03 0.03 0.03 0.04 0.04 0.04
0.01 0.01 0.01 0.02 0.06 0.06 0.03 0.01 0.01 0.01 0.01 0.01 0.01 0.01 0.01 0.02 0.02 0.02 0.03 0.03 0.03 0.05 0.07 0.06 0.05 0.04 0.05 0.04 0.03 0.03 0.03 0.02 0.02 0.03 0.04 0.03 0.04 0.03 0.03 0.04 0.05 0.03 0.03
0.01 0.02 0.02 0.02 0.03 0.03 0.02 0.01 0.02 0.02 0.02 0.01 0.01 0.01 0.01 0.02 0.02 0.02 0.02 0.02 0.02 0.05 0.06 0.05 0.04 0.03 0.03 0.03 0.03 0.03 0.03 0.02 0.02 0.02 0.04 0.04 0.05 0.05 0.04 0.03 0.06 0.06 0.05
0.02 0.02 0.02 0.01 0.01 0.02 0.01 0.01 0.02 0.01 0.01 0.00 0.01 0.01 0.02 0.02 0.02 0.02 0.01 0.01 0.02 0.03 0.03 0.03 0.03 0.03 0.03 0.02 0.02 0.02 0.02 0.02 0.02 0.02 0.03 0.03 0.03 0.04 0.03 0.02 0.03 0.05 0.05
0.02 0.02 0.03 0.02 0.01 0.01 0.02 0.02 0.02 0.01 0.01 0.01 0.01 0.02 0.02 0.02 0.02 0.01 0.02 0.01 0.01 0.01 0.02 0.02 0.03 0.04 0.03 0.03 0.02 0.02 0.02 0.02 0.01 0.01 0.02 0.02 0.03 0.03 0.04 0.03 0.03 0.03 0.04
0.01 0.01 0.01 0.01 0.01 0.02 0.03 0.03 0.02 0.02 0.03 0.03 0.02 0.02 0.02 0.02 0.01 0.01 0.02 0.01 0.01 0.01 0.01 0.01 0.02 0.02 0.02 0.02 0.02 0.02 0.02 0.02 0.01 0.01 0.01 0.01 0.02 0.03 0.04 0.04 0.04 0.04 0.03
0.01 0.02 0.02 0.02 0.03 0.03 0.03 0.03 0.04 0.05 0.07 0.06 0.03 0.03 0.03 0.02 0.02 0.02 0.02 0.02 0.02 0.01 0.01 0.02 0.01 0.01 0.01 0.01 0.01 0.01 0.02 0.02 0.01 0.01 0.02 0.02 0.02 0.03 0.04 0.04 0.04 0.04 0.04
0.02 0.02 0.02 0.04 0.06 0.05 0.04 0.05 0.11 0.13 0.10 0.05 0.03 0.05 0.04 0.03 0.03 0.03 0.03 0.03 0.03 0.02 0.01 0.02 0.02 0.02 0.01 0.02 0.02 0.02 0.03 0.03 0.02 0.02 0.02 0.02 0.03 0.03 0.03 0.04 0.06 0.06 0.05
0.03 0.02 0.02 0.04 0.07 0.07 0.06 0.05 0.07 0.08 0.07 0.05 0.05 0.07 0.05 0.03 0.03 0.03 0.03 0.03 0.02 0.01 0.01 0.01 0.02 0.02 0.02 0.02 0.03 0.03 0.02 0.03 0.03 0.02 0.02 0.02 0.03 0.02 0.02 0.03 0.05 0.06 0.06
0.04 0.05 0.05 0.04 0.03 0.03 0.04 0.06 0.06 0.07 0.09 0.13 0.09 0.05 0.04 0.04 0.04 0.03 0.03 0.03 0.02 0.01 0.01 0.03 0.03 0.03 0.03 0.03 0.03 0.03 0.03 0.03 0.03 0.03 0.03 0.03 0.03 0.02 0.02 0.03 0.04 0.05 0.06
0.06 0.05 0.06 0.04 0.02 0.02 0.04 0.05 0.07 0.06 0.06 0.07 0.08 0.04 0.04 0.05 0.04 0.04 0.03 0.03 0.02 0.02 0.02 0.03 0.03 0.03 0.03 0.03 0.04 0.03 0.03 0.03 0.02 0.02 0.03 0.02 0.03 0.02 0.03 0.03 0.05 0.06 0.06
0.11 0.08 0.04 0.03 0.03 0.03 0.04 0.05 0.11 0.11 0.10 0.08 0.06 0.05 0.05 0.04 0.04 0.03 0.03 0.03 0.03 0.03 0.03 0.04 0.04 0.05 0.04 0.04 0.04 0.04 0.03 0.02 0.02 0.01 0.01 0.01 0.03 0.03 0.04 0.05 0.05 0.05 0.06
0.08 0.06 0.07 0.05 0.03 0.03 0.05 0.05 0.07 0.07 0.07 0.07 0.06 0.05 0.04 0.03 0.02 0.02 0.03 0.02 0.03 0.04 0.05 0.05 0.05 0.04 0.05 0.05 0.05 0.04 0.03 0.02 0.02 0.02 0.01 0.01 0.02 0.03 0.05 0.06 0.06 0.08 0.09
0.10 0.05 0.03 0.04 0.03 0.03 0.04 0.04 0.05 0.07 0.06 0.05 0.05 0.04 0.04 0.03 0.01 0.02 0.03 0.03 0.03 0.04 0.04 0.04 0.04 0.04 0.04 0.04 0.04 0.04 0.03 0.03 0.03 0.03 0.02 0.02 0.02 0.02 0.03 0.04 0.05 0.06 0.09
0.06 0.04 0.03 0.03 0.05 0.06 0.05 0.04 0.04 0.03 0.03 0.03 0.04 0.04 0.03 0.03 0.02 0.03 0.03 0.04 0.04 0.05 0.05 0.04 0.03 0.04 0.04 0.04 0.04 0.05 0.04 0.04 0.04 0.03 0.02 0.03 0.02 0.03 0.03 0.03 0.04 0.03 0.04
0.03 0.03 0.03 0.04 0.05 0.05 0.05 0.05 0.05 0.04 0.04 0.04 0.04 0.04 0.03 0.02 0.03 0.03 0.03 0.03 0.04 0.05 0.04 0.03 0.03 0.04 0.02 0.03 0.04 0.05 0.05 0.05 0.04 0.04 0.03 0.03 0.02 0.02 0.04 0.04 0.03 0.03 0.03
0.02 0.03 0.05 0.07 0.06 0.05 0.05 0.06 0.06 0.05 0.06 0.05 0.04 0.03 0.03 0.02 0.02 0.02 0.03 0.03 0.03 0.03 0.03 0.03 0.03 0.03 0.02 0.03 0.03 0.05 0.05 0.05 0.04 0.05 0.03 0.03 0.03 0.04 0.05 0.04 0.03 0.03 0.03
0.03 0.04 0.05 0.05 0.04 0.03 0.03 0.03 0.03 0.03 0.03 0.03 0.03 0.04 0.04 0.03 0.03 0.03 0.03 0.03 0.04 0.04 0.03 0.02 0.02 0.02 0.02 0.02 0.03 0.05 0.06 0.05 0.04 0.05 0.05 0.03 0.03 0.04 0.05 0.04 0.04 0.03 0.04
0.02 0.04 0.07 0.07 0.04 0.03 0.03 0.04 0.03 0.04 0.05 0.05 0.05 0.05 0.04 0.04 0.03 0.03 0.03 0.03 0.03 0.04 0.03 0.02 0.02 0.01 0.01 0.02 0.02 0.03 0.04 0.04 0.04 0.04 0.03 0.03 0.03 0.04 0.03 0.03 0.03 0.03 0.05
0.03 0.03 0.03 0.04 0.04 0.04 0.06 0.06 0.08 0.09 0.09 0.09 0.07 0.05 0.04 0.04 0.03 0.02 0.02 0.04 0.04 0.03 0.03 0.03 0.03 0.03 0.03 0.03 0.02 0.03 0.03 0.03 0.03 0.03 0.03 0.04 0.04 0.04 0.04 0.04 0.03 0.04 0.04
0.03 0.02 0.02 0.03 0.04 0.05 0.05 0.07 0.09 0.09 0.09 0.09 0.07 0.04 0.03 0.04 0.03 0.02 0.02 0.03 0.04 0.03 0.03 0.03 0.03 0.04 0.06 0.05 0.03 0.03 0.04 0.05 0.04 0.03 0.04 0.05 0.04 0.04 0.04 0.04 0.04 0.04 0.04
0.03 0.05 0.04 0.04 0.04 0.04 0.04 0.05 0.08 0.08 0.07 0.06 0.06 0.04 0.04 0.04 0.04 0.03 0.03 0.03 0.04 0.03 0.03 0.03 0.03 0.04 0.05 0.04 0.03 0.03 0.03 0.03 0.04 0.04 0.04 0.04 0.05 0.06 0.06 0.04 0.03 0.02 0.02
0.06 0.08 0.09 0.09 0.08 0.06 0.04 0.04 0.04 0.05 0.04 0.04 0.04 0.03 0.03 0.04 0.04 0.04 0.03 0.03 0.04 0.03 0.03 0.04 0.04 0.04 0.04 0.03 0.03 0.03 0.02 0.02 0.02 0.01 0.02 0.02 0.03 0.03 0.03 0.03 0.03 0.02 0.02
0.04 0.05 0.05 0.04 0.03 0.03 0.04 0.04 0.04 0.06 0.07 0.07 0.06 0.05 0.05 0.05 0.06 0.06 0.04 0.03 0.04 0.05 0.04 0.05 0.07 0.06 0.04 0.04 0.04 0.04 0.03 0.02 0.02 0.01 0.01 0.02 0.02 0.02 0.01 0.01 0.01 0.02 0.02
MSLP
1013.54 1013.38 1012.97 1012.35 1011.58 1010.75 1009.99 1009.37 1008.95 1008.71 1008.61 1008.55 1008.45 1008.20 1007.77 1007.13 1006.34 1005.46 1004.58 1003.80 1003.16 1002.71 1002.46 1002.37 1002.40 1002.51 1002.64 1002.77 1002.89 1003.02 1003.16 1003.36 1003.63 1003.98 1004.41 1004.89 1005.40 1005.90 1006.35 1006.72 1006.98 1007.13 1007.19
1013.69 1013.67 1013.39 1012.84 1012.07 1011.20 1010.33 1009.60 1009.10 1008.84 1008.78 1008.85 1008.92 1008.89 1008.68 1008.24 1007.59 1006.78 1005.92 1005.10 1004.40 1003.88 1003.56 1003.42 1003.42 1003.49 1003.59 1003.68 1003.75 1003.82 1003.92 1004.09 1004.36 1004.74 1005.22 1005.78 1006.36 1006.90 1007.36 1007.68 1007.84 1007.86 1007.75
1013.52 1013.65 1013.52 1013.10 1012.40 1011.54 1010.65 1009.85 1009.28 1008.98 1008.93 1009.07 1009.27 1009.42 1009.41 1009.16 1008.68 1008.01 1007.23 1006.45 1005.75 1005.21 1004.85 1004.67 1004.62 1004.64 1004.69 1004.73 1004.75 1004.77 1004.82 1004.95 1005.20 1005.57 1006.05 1006.61 1007.19 1007.71 1008.12 1008.36 1008.43 1008.34 1008.12
1013.08 1013.34 1013.37 1013.11 1012.56 1011.79 1010.92 1010.12 1009.51 1009.17 1009.11 1009.26 1009.53 1009.79 1009.93 1009.85 1009.54 1009.03 1008.38 1007.69 1007.06 1006.55 1006.19 1006.00 1005.92 1005.91 1005.92 1005.91 1005.88 1005.84 1005.83 1005.91 1006.09 1006.39 1006.81 1007.30 1007.80 1008.24 1008.56 1008.72 1008.71 1008.55 1008.28
1012.47 1012.83 1013.03 1012.96 1012.58 1011.95 1011.18 1010.43 1009.82 1009.45 1009.34 1009.47 1009.75 1010.04 1010.26 1010.30 1010.12 1009.75 1009.24 1008.67 1008.14 1007.69 1007.38 1007.21 1007.13 1007.10 1007.08 1007.04 1006.96 1006.87 1006.80 1006.80 1006.89 1007.09 1007.40 1007.76 1008.14 1008.46 1008.68 1008.76 1008.70 1008.52 1008.26
1011.85 1012.29 1012.63 1012.73 1012.54 1012.09 1011.47 1010.80 1010.22 1009.83 1009.68 1009.75 1009.97 1010.25 1010.46 1010.54 1010.44 1010.17 1009.77 1009.31 1008.87 1008.50 1008.25 1008.11 1008.04 1008.02 1007.99 1007.93 1007.82 1007.69 1007.57 1007.48 1007.48 1007.57 1007.74 1007.96 1008.20 1008.41 1008.53 1008.56 1008.48 1008.33 1008.13
1011.38 1011.85 1012.29 1012.55 1012.54 1012.27 1011.80 1011.25 1010.73 1010.34 1010.15 1010.14 1010.28 1010.47 1010.63 1010.68 1010.59 1010.35 1010.01 1009.62 1009.25 1008.94 1008.73 1008.62 1008.58 1008.56 1008.53 1008.46 1008.34 1008.18 1008.01 1007.87 1007.79 1007.77 1007.83 1007.93 1008.06 1008.16 1008.22 1008.23 1008.17 1008.08 1007.97
1011.18 1011.65 1012.14 1012.50 1012.63 1012.52 1012.21 1011.77 1011.33 1010.97 1010.74 1010.66 1010.69 1010.77 1010.83 1010.81 1010.67 1010.42 1010.09 1009.72 1009.37 1009.10 1008.90 1008.80 1008.75 1008.73 1008.70 1008.62 1008.50 1008.33 1008.15 1007.98 1007.85 1007.77 1007.75 1007.77 1007.81 1007.86 1007.88 1007.89 1007.87 1007.85 1007.83
1011.33 1011.75 1012.24 1012.64 1012.86 1012.86 1012.67 1012.35 1011.99 1011.66 1011.42 1011.28 1011.22 1011.19 1011.14 1011.02 1010.81 1010.50 1010.14 1009.76 1009.41 1009.12 1008.92 1008.79 1008.73 1008.69 1008.64 1008.56 1008.44 1008.28 1008.10 1007.93 1007.79 1007.68 1007.62 1007.60 1007.60 1007.62 1007.63 1007.65 1007.67 1007.71 1007.77
1011.80 1012.16 1012.59 1012.98 1013.22 1013.28 1013.17 1012.94 1012.65 1012.37 1012.14 1011.97 1011.84 1011.73 1011.58 1011.37 1011.08 1010.72 1010.32 1009.90 1009.52 1009.21 1008.98 1008.82 1008.72 1008.65 1008.57 1008.48 1008.36 1008.21 1008.05 1007.89 1007.76 1007.65 1007.59 1007.55 1007.54 1007.54 1007.55 1007.57 1007.62 1007.69 1007.79
1012.55 1012.81 1013.15 1013.45 1013.66 1013.72 1013.65 1013.48 1013.26 1013.03 1012.82 1012.65 1012.50 1012.33 1012.13 1011.86 1011.52 1011.12 1010.68 1010.25 1009.85 1009.51 1009.25 1009.06 1008.92 1008.81 1008.70 1008.59 1008.46 1008.32 1008.17 1008.03 1007.91 1007.82 1007.76 1007.71 1007.68 1007.67 1007.66 1007.67 1007.70 1007.76 1007.85
1013.45 1013.60 1013.81 1014.00 1014.11 1014.14 1014.07 1013.93 1013.76 1013.58 1013.42 1013.27 1013.12 1012.94 1012.72 1012.43 1012.08 1011.67 1011.24 1010.81 1010.42 1010.08 1009.81 1009.59 1009.43 1009.29 1009.15 1009.02 1008.87 1008.72 1008.57 1008.43 1008.32 1008.22 1008.15 1008.09 1008.03 1007.97 1007.92 1007.87 1007.85 1007.86 1007.91
1014.38 1014.41 1014.48 1014.53 1014.54 1014.50 1014.40 1014.28 1014.14 1014.01 1013.90 1013.78 1013.65 1013.49 1013.28 1013.00 1012.67 1012.29 1011.90 1011.51 1011.16 1010.86 1010.61 1010.41 1010.24 1010.08 1009.93 1009.77 1009.59 1009.42 1009.25 1009.09 1008.96 1008.84 1008.72 1008.62 1008.50 1008.38 1008.25 1008.12 1008.01 1007.93 1007.90
1015.23 1015.15 1015.08 1015.00 1014.90 1014.79 1014.66 1014.54 1014.43 1014.34 1014.26 1014.18 1014.08 1013.94 1013.75 1013.50 1013.21 1012.89 1012.56 1012.25 1011.97 1011.74 1011.55 1011.39 1011.24 1011.09 1010.93 1010.75 1010.55 1010.34 1010.13 1009.93 1009.74 1009.56 1009.38 1009.20 1009.00 1008.79 1008.56 1008.32 1008.10 1007.92 1007.79
1015.92 1015.74 1015.56 1015.38 1015.19 1015.02 1014.87 1014.75 1014.66 1014.60 1014.55 1014.49 1014.40 1014.28 1014.10 1013.88 1013.63 1013.37 1013.12 1012.90 1012.72 1012.58 1012.48 1012.39 1012.29 1012.17 1012.01 1011.81 1011.58 1011.33 1011.06 1010.80 1010.54 1010.28 1010.02 1009.74 1009.45 1009.12 1008.78 1008.43 1008.09 1007.79 1007.55
1016.42 1016.17 1015.92 1015.67 1015.44 1015.24 1015.08 1014.97 1014.90 1014.85 1014.81 1014.76 1014.67 1014.53 1014.36 1014.15 1013.93 1013.72 1013.54 1013.41 1013.32 1013.29 1013.28 1013.27 1013.23 1013.15 1013.00 1012.80 1012.54 1012.24 1011.92 1011.58 1011.24 1010.89 1010.54 1010.16 1009.77 1009.34 1008.89 1008.43 1007.98 1007.57 1007.23
1016.73 1016.46 1016.17 1015.90 1015.67 1015.47 1015.34 1015.25 1015.19 1015.16 1015.11 1015.03 1014.91 1014.75 1014.55 1014.33 1014.11 1013.93 1013.81 1013.75 1013.76 1013.81 1013.89 1013.95 1013.98 1013.94 1013.81 1013.61 1013.32 1012.98 1012.60 1012.19 1011.76 1011.34 1010.89 1010.43 1009.95 1009.43 1008.89 1008.34 1007.81 1007.31 1006.88
1016.90 1016.63 1016.36 1016.11 1015.91 1015.76 1015.66 1015.60 1015.56 1015.52 1015.46 1015.35 1015.19 1014.98 1014.73 1014.48 1014.26 1014.09 1014.00 1013.99 1014.06 1014.18 1014.33 1014.45 1014.52 1014.51 1014.41 1014.19 1013.89 1013.50 1013.07 1012.60 1012.11 1011.62 1011.11 1010.58 1010.03 1009.46 1008.86 1008.25 1007.64 1007.08 1006.58
1016.98 1016.75 1016.53 1016.34 1016.19 1016.09 1016.04 1016.01 1015.99 1015.94 1015.86 1015.71 1015.50 1015.24 1014.95 1014.67 1014.43 1014.26 1014.19 1014.21 1014.31 1014.48 1014.66 1014.82 1014.92 1014.92 1014.82 1014.59 1014.26 1013.85 1013.37 1012.86 1012.33 1011.78 1011.23 1010.67 1010.09 1009.48 1008.85 1008.21 1007.57 1006.96 1006.40
1017.04 1016.87 1016.72 1016.59 1016.51 1016.46 1016.45 1016.44 1016.43 1016.37 1016.26 1016.08 1015.83 1015.53 1015.21 1014.91 1014.66 1014.50 1014.44 1014.47 1014.60 1014.78 1014.98 1015.15 1015.25 1015.24 1015.12 1014.88 1014.52 1014.08 1013.58 1013.04 1012.48 1011.91 1011.35 1010.77 1010.18 1009.57 1008.94 1008.29 1007.63 1006.99 1006.40
1017.14 1017.04 1016.94 1016.88 1016.84 1016.83 1016.84 1016.85 1016.82 1016.75 1016.61 1016.40 1016.13 1015.82 1015.50 1015.21 1014.97 1014.83 1014.78 1014.83 1014.97 1015.15 1015.34 1015.49 1015.56 1015.53 1015.38 1015.11 1014.74 1014.27 1013.75 1013.20 1012.63 1012.07 1011.50 1010.94 1010.37 1009.78 1009.16 1008.52 1007.87 1007.22 1006.59
1017.31 1017.26 1017.22 1017.19 1017.18 1017.18 1017.19 1017.18 1017.13 1017.03 1016.87 1016.65 1016.38 1016.08 1015.78 1015.52 1015.33 1015.22 1015.20 1015.27 1015.41 1015.58 1015.75 1015.86 1015.90 1015.83 1015.64 1015.34 1014.94 1014.46 1013.93 1013.38 1012.83 1012.28 1011.74 1011.20 1010.65 1010.09 1009.51 1008.89 1008.26 1007.61 1006.97
1017.54 1017.54 1017.52 1017.51 1017.50 1017.49 1017.46 1017.41 1017.32 1017.19 1017.01 1016.79 1016.53 1016.27 1016.02 1015.82 1015.69 1015.63 1015.65 1015.75 1015.89 1016.04 1016.17 1016.24 1016.23 1016.11 1015.88 1015.55 1015.13 1014.65 1014.13 1013.59 1013.06 1012.54 1012.03 1011.53 1011.03 1010.51 1009.96 1009.37 1008.76 1008.13 1007.49
1017.83 1017.85 1017.85 1017.83 1017.79 1017.74 1017.67 1017.56 1017.43 1017.26 1017.06 1016.83 1016.61 1016.39 1016.21 1016.08 1016.01 1016.02 1016.08 1016.20 1016.33 1016.46 1016.55 1016.57 1016.50 1016.33 1016.06 1015.71 1015.28 1014.81 1014.31 1013.80 1013.31 1012.83 1012.36 1011.90 1011.44 1010.96 1010.45 1009.90 1009.32 1008.71 1008.08
1018.14 1018.17 1018.17 1018.13 1018.07 1017.97 1017.84 1017.67 1017.49 1017.28 1017.06 1016.84 1016.64 1016.47 1016.35 1016.29 1016.29 1016.34 1016.44 1016.56 1016.68 1016.77 1016.81 1016.78 1016.65 1016.44 1016.14 1015.77 1015.35 1014.90 1014.43 1013.97 1013.52 1013.09 1012.67 1012.25 1011.83 1011.39 1010.92 1010.41 1009.86 1009.28 1008.68
1018.43 1018.47 1018.47 1018.42 1018.33 1018.19 1018.01 1017.80 1017.57 1017.33 1017.09 1016.87 1016.69 1016.56 1016.49 1016.47 1016.51 1016.59 1016.70 1016.81 1016.90 1016.95 1016.93 1016.83 1016.66 1016.41 1016.09 1015.71 1015.31 1014.89 1014.47 1014.06 1013.66 1013.28 1012.91 1012.53 1012.15 1011.74 1011.30 1010.82 1010.31 1009.77 1009.21
Thickness
5805 5805 5804 5803 5800 5796 5793 5792 5790 5789 5787 5784 5780 5777 5775 5775 5775 5775 5775 5774 5773 5771 5770 5768 5767 5765 5763 5761 5761 5759 5757 5756 5756 5753 5750 5752 5754 5754 5754 5754 5753 5752 5752
5800 5800 5800 5799 5797 5793 5792 5790 5789 5788 5786 5783 5781 5778 5775 5773 5773 5773 5772 5771 5770 5769 5768 5765 5763 5761 5759 5758 5756 5755 5752 5752 5752 5747 5742 5738 5741 5747 5751 5750 5749 5749 5749
5800 5797 5796 5796 5795 5793 5791 5791 5788 5787 5785 5783 5780 5777 5773 5771 5768 5768 5767 5767 5767 5766 5764 5762 5760 5758 5756 5754 5753 5752 5749 5745 5747 5746 5740 5733 5729 5734 5741 5744 5745 5745 5744
5801 5797 5795 5794 5794 5794 5793 5790 5788 5786 5784 5782 5777 5773 5768 5764 5764 5764 5764 5764 5764 5762 5761 5759 5757 5755 5753 5751 5750 5748 5746 5743 5740 5741 5741 5738 5735 5729 5728 5735 5739 5740 5740
5803 5799 5797 5797 5796 5795 5792 5790 5787 5784 5782 5780 5776 5772 5768 5765 5764 5762 5760 5759 5759 5759 5757 5756 5753 5751 5749 5747 5745 5744 5742 5740 5737 5735 5734 5733 5732 5730 5725 5723 5728 5732 5735
5805 5801 5799 5798 5796 5794 5791 5788 5784 5781 5780 5777 5774 5771 5766 5763 5760 5758 5755 5754 5754 5753 5753 5752 5749 5747 5745 5743 5741 5739 5737 5735 5733 5731 5730 5727 5725 5723 5721 5719 5719 5721 5727
5802 5798 5796 5794 5793 5791 5788 5785 5782 5778 5777 5774 5772 5769 5766 5762 5758 5755 5752 5750 5748 5748 5748 5747 5745 5743 5741 5739 5738 5735 5733 5731 5728 5726 5725 5723 5722 5721 5720 5716 5715 5715 5719
5800 5798 5797 5794 5792 5790 5787 5783 5779 5776 5773 5771 5769 5767 5764 5760 5757 5754 5751 5749 5746 5745 5744 5743 5741 5739 5737 5735 5733 5730 5728 5726 5724 5723 5721 5719 5718 5717 5716 5713 5710 5707 5708
5799 5798 5796 5793 5789 5786 5784 5782 5778 5774 5771 5768 5765 5763 5760 5757 5754 5752 5749 5746 5744 5743 5740 5738 5736 5734 5732 5730 5728 5725 5722 5721 5719 5717 5716 5714 5713 5713 5712 5710 5708 5703 5699
5797 5796 5794 5790 5787 5784 5782 5779 5775 5770 5768 5766 5763 5760 5756 5754 5751 5748 5744 5742 5740 5738 5736 5733 5731 5729 5727 5724 5722 5719 5717 5715 5713 5711 5710 5708 5708 5707 5707 5706 5704 5702 5698
5792 5791 5789 5786 5785 5781 5778 5774 5771 5768 5764 5761 5758 5754 5751 5749 5747 5744 5741 5738 5736 5733 5731 5728 5726 5724 5721 5719 5716 5714 5712 5709 5707 5705 5704 5702 5702 5701 5700 5700 5698 5696 5694
5788 5787 5784 5782 5779 5776 5773 5770 5767 5764 5761 5757 5753 5750 5747 5745 5741 5738 5736 5734 5731 5729 5726 5724 5721 5719 5716 5714 5711 5709 5707 5704 5701 5699 5697 5696 5696 5694 5694 5693 5692 5691 5690
5784 5782 5779 5776 5774 5771 5768 5765 5762 5759 5755 5751 5747 5744 5742 5739 5735 5733 5731 5728 5725 5723 5721 5719 5716 5713 5711 5709 5707 5705 5702 5699 5697 5694 5692 5691 5690 5688 5687 5687 5686 5685 5685
5779 5775 5772 5770 5768 5765 5761 5759 5756 5754 5750 5746 5741 5737 5734 5732 5729 5727 5724 5722 5719 5717 5715 5713 5711 5708 5706 5704 5702 5700 5696 5694 5692 5690 5688 5686 5685 5683 5682 5681 5680 5679 5677
5773 5770 5767 5764 5762 5758 5755 5753 5751 5748 5745 5739 5734 5731 5728 5726 5724 5721 5718 5715 5713 5711 5709 5706 5704 5703 5701 5699 5696 5694 5692 5688 5686 5684 5683 5682 5681 5680 5679 5677 5675 5673 5670
5770 5768 5765 5761 5757 5753 5749 5746 5744 5742 5738 5733 5729 5726 5723 5720 5718 5715 5712 5709 5706 5704 5702 5700 5698 5696 5695 5694 5692 5689 5686 5684 5681 5678 5677 5676 5675 5675 5674 5673 5671 5669 5665
5766 5762 5760 5757 5754 5749 5745 5741 5739 5736 5731 5728 5724 5721 5718 5715 5712 5710 5705 5702 5700 5697 5695 5693 5691 5688 5688 5687 5686 5684 5681 5677 5675 5672 5670 5670 5670 5668 5666 5665 5664 5662 5662
5762 5760 5757 5753 5750 5747 5742 5738 5734 5730 5726 5722 5718 5715 5712 5709 5706 5702 5698 5696 5694 5690 5687 5685 5683 5681 5681 5680 5679 5677 5673 5670 5668 5666 5664 5661 5660 5660 5658 5657 5655 5654 5654
5761 5758 5755 5750 5745 5741 5737 5733 5727 5724 5720 5716 5712 5710 5706 5703 5699 5696 5693 5690 5687 5684 5681 5679 5677 5675 5673 5672 5671 5668 5664 5661 5660 5659 5657 5655 5653 5653 5652 5649 5647 5647 5648
5757 5753 5749 5744 5738 5734 5731 5726 5720 5717 5714 5712 5709 5706 5702 5698 5694 5691 5688 5686 5682 5678 5676 5672 5670 5667 5665 5664 5662 5660 5656 5653 5651 5651 5649 5648 5647 5646 5645 5642 5641 5639 5640
5750 5748 5742 5737 5732 5729 5726 5719 5714 5711 5710 5708 5704 5700 5696 5693 5690 5686 5683 5680 5677 5672 5669 5666 5663 5661 5659 5657 5655 5652 5649 5646 5643 5642 5641 5641 5641 5640 5639 5637 5635 5635 5634
5741 5739 5733 5728 5727 5724 5719 5713 5709 5707 5705 5702 5698 5694 5691 5688 5686 5681 5677 5674 5670 5666 5662 5658 5656 5654 5653 5651 5648 5646 5643 5641 5638 5636 5635 5635 5635 5635 5634 5632 5631 5630 5628
5732 5730 5726 5722 5719 5717 5714 5708 5705 5703 5699 5695 5691 5688 5686 5683 5680 5675 5671 5667 5664 5660 5656 5652 5649 5647 5646 5645 5643 5640 5638 5636 5633 5632 5631 5630 5629 5628 5627 5627 5626 5625 5622
5724 5721 5718 5714 5711 5710 5708 5705 5702 5699 5695 5690 5686 5684 5680 5676 5673 5670 5666 5662 5658 5654 5651 5648 5644 5642 5640 5638 5637 5634 5632 5630 5628 5626 5625 5624 5623 5622 5621 5620 5619 5618 5616
5718 5715 5711 5707 5705 5704 5701 5699 5697 5693 5688 5684 5681 5677 5674 5671 5666 5663 5660 5658 5656 5653 5648 5645 5642 5638 5635 5634 5632 5628 5626 5623 5621 5619 5617 5616 5614 5613 5612 5612 5611 5611 5610
5710 5707 5704 5701 5699 5698 5695 5693 5690 5687 5682 5677 5673 5670 5667 5664 5660 5656 5653 5652 5651 5649 5646 5643 5639 5636 5633 5631 5628 5625 5622 5619 5617 5614 5610 5608 5607 5605 5605 5604 5604 5604 5603